Date String (YYYY-MM-DD hh:mm:ss) UTC,Instrument flags,Ambient pressure (hPa),Sample flow (lpm),Bypass flow (lpm),Sample temperature (°C),Ambient temperature (°C),ASC tube jacket temperature (°C),LED temperature (°C),Box temperature (°C),Sample RH (%),Span deviation,Mass concentration (μg/m³),Mass concentration (μg/m³),Mass concentration (μg/m³)
DateTimeUTC,F1_M11,P_M11,Q1_M11,Q2_M11,T1_M11,T2_M11,T3_M11,T4_M11,T5_M11,U1_M11,ZSPAN_M11,X0_M11,X2_M11,X1_M11
2022-11-23 05:00:00,,0824.9,5.00,0.00,23.5,22.0,00.0,32.5,25.2,07.0,0000.0,0006.45,0003.18,0002.34
2022-11-23 05:01:00,,0824.9,5.00,0.00,23.5,22.0,00.0,32.5,25.2,07.1,0000.0,0006.90,0003.18,0002.31
2022-11-23 05:02:00,,0824.9,5.00,0.00,23.5,22.0,00.0,32.5,25.1,07.2,0000.0,0007.61,0003.16,0002.28
2022-11-23 05:03:00,,0824.9,5.00,0.00,23.5,22.0,00.0,32.5,25.2,07.2,0000.0,0007.78,0003.12,0002.26
2022-11-23 05:04:00,,0824.9,5.00,0.00,23.5,22.0,00.0,32.5,25.3,07.3,0000.0,0008.16,0003.06,0002.27
2022-11-23 05:05:00,,0824.9,5.00,0.00,23.5,22.1,00.0,32.5,25.3,07.5,0000.0,0008.10,0003.04,0002.30
2022-11-23 05:06:00,,0824.9,5.00,0.00,23.5,22.1,00.0,32.5,25.2,08.1,0000.0,0008.18,0003.11,0002.35
2022-11-23 05:07:00,,0824.9,5.00,0.00,23.5,22.1,00.0,32.5,25.2,08.0,0000.0,0008.76,0003.16,0002.36
2022-11-23 05:08:00,,0824.9,5.00,0.00,23.5,22.1,00.0,32.5,25.2,07.7,0000.0,0008.81,0003.18,0002.38
2022-11-23 05:09:00,,0824.8,5.01,0.00,23.5,22.1,00.0,32.5,25.2,07.4,0000.0,0009.70,0003.19,0002.40
2022-11-23 05:10:00,,0824.8,5.00,0.00,23.5,22.1,00.0,32.5,25.2,07.2,0000.0,0009.88,0003.20,0002.42
2022-11-23 05:11:00,,0824.8,5.00,0.00,23.5,22.1,00.0,32.5,25.3,07.1,0000.0,0009.66,0003.20,0002.46
2022-11-23 05:12:00,,0824.7,5.00,0.00,23.5,22.1,00.0,32.5,25.3,07.1,0000.0,0009.29,0003.22,0002.46
2022-11-23 05:13:00,,0824.7,5.00,0.00,23.5,22.0,00.0,32.5,25.3,07.2,0000.0,0008.81,0003.23,0002.47
2022-11-23 05:14:00,,0824.7,5.00,0.00,23.5,22.0,00.0,32.5,25.3,07.2,0000.0,0008.77,0003.24,0002.48
2022-11-23 05:15:00,,0824.6,4.99,0.00,23.5,22.0,00.0,32.5,25.3,07.2,0000.0,0008.46,0003.28,0002.51
2022-11-23 05:16:00,,0824.7,5.00,0.00,23.5,22.0,00.0,32.4,25.3,07.3,0000.0,0008.60,0003.29,0002.51
2022-11-23 05:17:00,,0824.6,5.01,0.00,23.5,22.1,00.0,32.4,25.3,07.3,0000.0,0009.20,0003.30,0002.52
2022-11-23 05:18:00,,0824.6,4.98,0.00,23.5,22.1,00.0,32.4,25.2,07.2,0000.0,0008.88,0003.28,0002.54
2022-11-23 05:19:00,,0824.7,5.01,0.00,23.5,22.1,00.0,32.4,25.3,07.2,0000.0,0008.84,0003.28,0002.54
2022-11-23 05:20:00,,0824.7,5.01,0.00,23.5,22.1,00.0,32.4,25.4,07.1,0000.0,0008.37,0003.30,0002.56
2022-11-23 05:21:00,,0824.7,5.00,0.00,23.5,22.2,00.0,32.4,25.4,07.1,0000.0,0008.36,0003.26,0002.55
2022-11-23 05:22:00,,0824.7,5.00,0.00,23.5,22.2,00.0,32.4,25.4,07.1,0000.0,0008.50,0003.32,0002.52
2022-11-23 05:23:00,,0824.7,5.00,0.00,23.5,22.1,00.0,32.5,25.4,07.0,0000.0,0008.60,0003.31,0002.50
2022-11-23 05:24:00,,0824.6,4.99,0.00,23.5,22.1,00.0,32.5,25.4,07.0,0000.0,0008.61,0003.30,0002.50
2022-11-23 05:25:00,,0824.7,4.99,0.00,23.5,22.1,00.0,32.4,25.4,07.1,0000.0,0008.73,0003.31,0002.50
2022-11-23 05:26:00,,0824.8,4.99,0.00,23.5,22.2,00.0,32.4,25.4,07.3,0000.0,0008.97,0003.30,0002.50
2022-11-23 05:27:00,,0824.9,5.01,0.00,23.5,22.2,00.0,32.4,25.3,07.6,0000.0,0008.93,0003.29,0002.52
2022-11-23 05:28:00,,0824.9,5.01,0.00,23.5,22.1,00.0,32.4,25.3,07.7,0000.0,0008.37,0003.28,0002.53
2022-11-23 05:29:00,,0824.8,5.00,0.00,23.5,22.1,00.0,32.4,25.3,07.3,0000.0,0008.55,0003.33,0002.52
2022-11-23 05:30:00,,0824.8,4.99,0.00,23.5,22.1,00.0,32.4,25.2,07.1,0000.0,0009.07,0003.36,0002.51
2022-11-23 05:31:00,,0824.8,4.99,0.00,23.5,22.1,00.0,32.4,25.2,07.3,0000.0,0008.97,0003.37,0002.50
2022-11-23 05:32:00,,0824.8,5.01,0.00,23.5,22.1,00.0,32.4,25.3,07.4,0000.0,0008.67,0003.40,0002.54
2022-11-23 05:33:00,,0824.8,5.00,0.00,23.5,22.1,00.0,32.4,25.2,07.5,0000.0,0008.63,0003.38,0002.58
2022-11-23 05:34:00,,0824.7,4.99,0.00,23.5,22.1,00.0,32.4,25.2,07.3,0000.0,0008.52,0003.40,0002.64
2022-11-23 05:35:00,,0824.7,5.00,0.00,23.5,22.1,00.0,32.4,25.2,07.2,0000.0,0008.44,0003.42,0002.67
2022-11-23 05:36:00,,0824.7,5.00,0.00,23.5,22.1,00.0,32.4,25.3,07.2,0000.0,0008.75,0003.39,0002.65
2022-11-23 05:37:00,,0824.6,5.00,0.00,23.5,22.1,00.0,32.4,25.3,07.3,0000.0,0008.78,0003.38,0002.65
2022-11-23 05:38:00,,0824.7,5.01,0.00,23.5,22.1,00.0,32.4,25.1,07.2,0000.0,0009.20,0003.42,0002.66
2022-11-23 05:39:00,,0824.7,5.01,0.00,23.5,22.1,00.0,32.4,25.2,07.1,0000.0,0009.68,0003.42,0002.66
2022-11-23 05:40:00,,0824.9,5.00,0.00,23.5,22.1,00.0,32.4,25.3,07.3,0000.0,0009.70,0003.38,0002.68
2022-11-23 05:41:00,,0824.9,4.99,0.00,23.5,22.1,00.0,32.4,25.3,08.6,0000.0,0009.18,0003.37,0002.70
2022-11-23 05:42:00,,0824.9,5.00,0.00,23.5,22.0,00.0,32.4,25.3,08.3,0000.0,0009.59,0003.35,0002.71
2022-11-23 05:43:00,,0824.9,5.01,0.00,23.5,22.1,00.0,32.4,25.2,08.2,0000.0,0009.89,0003.35,0002.71
2022-11-23 05:44:00,,0824.9,5.01,0.00,23.5,22.1,00.0,32.4,25.2,08.3,0000.0,0009.85,0003.34,0002.72
2022-11-23 05:45:00,,0824.8,4.99,0.00,23.5,22.1,00.0,32.4,25.2,08.1,0000.0,0009.90,0003.32,0002.71
2022-11-23 05:46:00,,0824.7,5.00,0.00,23.5,22.1,00.0,32.4,25.2,08.0,0000.0,0010.68,0003.33,0002.70
2022-11-23 05:47:00,,0824.7,4.99,0.00,23.5,22.1,00.0,32.4,25.2,08.0,0000.0,0010.27,0003.33,0002.72
2022-11-23 05:48:00,,0824.7,5.01,0.00,23.5,22.1,00.0,32.4,25.2,07.7,0000.0,0009.89,0003.35,0002.73
2022-11-23 05:49:00,,0824.7,5.01,0.00,23.5,22.1,00.0,32.4,25.1,07.8,0000.0,0009.60,0003.30,0002.69
2022-11-23 05:50:00,,0824.7,4.99,0.00,23.5,22.1,00.0,32.4,25.1,07.7,0000.0,0008.84,0003.24,0002.66
2022-11-23 05:51:00,,0824.7,5.00,0.00,23.5,22.1,00.0,32.4,25.2,07.8,0000.0,0008.65,0003.22,0002.62
2022-11-23 05:52:00,,0824.6,5.00,0.00,23.4,21.9,00.0,32.4,25.2,07.8,0000.0,0008.58,0003.21,0002.60
2022-11-23 05:53:00,,0824.5,5.00,0.00,23.4,21.8,00.0,32.4,25.2,07.6,0000.0,0007.96,0003.20,0002.59
2022-11-23 05:54:00,,0824.7,5.00,0.00,23.4,21.7,00.0,32.4,25.2,07.3,0000.0,0008.18,0003.19,0002.57
2022-11-23 05:55:00,,0824.6,5.00,0.00,23.4,21.7,00.0,32.4,25.2,07.3,0000.0,0008.75,0003.18,0002.54
2022-11-23 05:56:00,,0824.7,5.00,0.00,23.4,21.7,00.0,32.4,25.2,07.5,0000.0,0008.80,0003.18,0002.50
2022-11-23 05:57:00,,0824.6,5.01,0.00,23.4,21.7,00.0,32.4,25.1,07.5,0000.0,0008.06,0003.19,0002.48
2022-11-23 05:58:00,,0824.6,5.01,0.00,23.3,21.8,00.0,32.3,25.1,07.7,0000.0,0008.02,0003.18,0002.45
2022-11-23 05:59:00,,0824.6,5.00,0.00,23.3,21.8,00.0,32.3,25.0,07.7,0000.0,0008.02,0003.13,0002.42
